(277862) = 2006 JK20 = 1997 SJ6

Discovered at Kitt Peak on 2006-05-02 by Spacewatch.

Orbit

Orbit type: Main Belt

Note: WebGL enabled browser required.

epoch2024-03-31.0
epoch JD2460400.5
perihelion date2026-09-03.10304
perihelion JD2461286.60304
argument of perihelion (°)53.40050
ascending node (°)170.61003
inclination (°)10.34561
eccentricity0.0418324
perihelion distance (AU)2.8476344
Tisserand w.r.t. Jupiter3.2
ΔV w.r.t. Earth (km/sec)11.0
semimajor axis (AU)2.9719586
mean anomaly (°)189.53943
mean daily motion (°/day)0.19237110
aphelion distance (AU)3.096
period (years)5.12
P-vector [x]-0.71708264
P-vector [y]-0.68299300
P-vector [z]-0.13897136
Q-vector [x]0.69637202
Q-vector [y]-0.69368096
Q-vector [z]-0.18404544
absolute magnitude16.03
phase slope0.15
uncertainty0
referenceMPEC 2024-C115
observations used335
oppositions14
arc length (days)9600
first opposition used1997
last opposition used2024
residual rms (arc-secs)0.65
perturbers coarse indicatorM-v
perturbers precise indicator003Ek
first observation date used1997-09-23.0
last observation date used2024-01-05.0
computer nameMPCLINUX
JD of orbit computation2456612.624627
perihelion JD uncertainty (days)3.6846E-04
argument of perihelion uncertainty (°)8.7888E-05
ascending node uncertainty (°)4.3699E-05
inclination uncertainty (°)7.5249E-06
eccentricity uncertainty 1.9636E-07
perihelion distance uncertainty (AU)6.0389E-07
Minimum Orbit Intersection Distances (in AU)
for orbit epoch: 2460200.5, reference: E2024-CB5
Mercury2.39612
Venus2.12509
Earth1.84931
Mars1.22188
Jupiter1.88133
Saturn6.04509
Uranus15.545
Neptune26.7575

Observations

340 total observations over interval: 1997 09 23.24468 – 2024 01 05.272071
These data are available for download (format description).

Date (UT) J2000 RA J2000 Dec Magn Location Ref
1997 09 23.24468 22 58 23.45 -05 59 58.0 20.6 V 691 – Steward Observatory, Kitt Peak-Spacewatch MPS 30
1997 09 23.26611 22 58 22.63 -06 00 07.2 20.7 V 691 – Steward Observatory, Kitt Peak-Spacewatch MPS 30
1997 09 23.28769 22 58 21.80 -06 00 16.4 20.3 V 691 – Steward Observatory, Kitt Peak-Spacewatch MPS 30
1997 09 29.17922 22 54 55.77 -06 40 21.0 20.6 V 691 – Steward Observatory, Kitt Peak-Spacewatch MPS 30
1997 09 29.20587 22 54 54.85 -06 40 31.3 20.7 V 691 – Steward Observatory, Kitt Peak-Spacewatch MPS 30
1997 09 29.22692 22 54 54.13 -06 40 39.1 20.6 V 691 – Steward Observatory, Kitt Peak-Spacewatch MPS 30
2006 04 24.37384 15 56 35.56 -06 47 25.2 20.2 V 691 – Steward Observatory, Kitt Peak-Spacewatch MPS 171669
2006 04 24.39111 15 56 34.97 -06 47 19.2 20.3 V 691 – Steward Observatory, Kitt Peak-Spacewatch MPS 171669
2006 04 24.40835 15 56 34.36 -06 47 13.2 20.1 V 691 – Steward Observatory, Kitt Peak-Spacewatch MPS 171669
2006 05 02.35511 15 51 39.47 -06 00 26.8 20.2 V 691 – Steward Observatory, Kitt Peak-Spacewatch MPS 171450
2006 05 02.37247 15 51 38.73 -06 00 21.0 20.1 V 691 – Steward Observatory, Kitt Peak-Spacewatch MPS 171450
2006 05 02.38978 15 51 37.99 -06 00 15.2 20.2 V 691 – Steward Observatory, Kitt Peak-Spacewatch MPS 171450
2006 05 06.32618 15 48 52.49 -05 38 24.6 20.2 V 691 – Steward Observatory, Kitt Peak-Spacewatch MPS 171450
2006 05 06.34348 15 48 51.69 -05 38 19.0 20.2 V 691 – Steward Observatory, Kitt Peak-Spacewatch MPS 171450
2006 05 06.36075 15 48 50.93 -05 38 13.1 20.2 V 691 – Steward Observatory, Kitt Peak-Spacewatch MPS 171450
2006 05 21.28220 15 37 28.07 -04 29 13.4 20.1 R 644 – Palomar Mountain/NEAT MPS 172129
2006 05 21.30230 15 37 27.09 -04 29 08.8 20.7 R 644 – Palomar Mountain/NEAT MPS 172129
2006 05 21.32758 15 37 25.85 -04 29 03.7 20.6 R 644 – Palomar Mountain/NEAT MPS 172129
2007 10 09.17514 21 35 02.58 -11 06 28.3 20.8 V G96 – Mt. Lemmon Survey MPS 286927
2007 10 09.18237 21 35 02.58 -11 06 30.0 21.1 V G96 – Mt. Lemmon Survey MPS 286927
2007 10 09.18958 21 35 02.54 -11 06 31.6 20.8 V G96 – Mt. Lemmon Survey MPS 286927
2007 10 09.19682 21 35 02.54 -11 06 33.0 21.3 V G96 – Mt. Lemmon Survey MPS 286927
2011 02 11.49863 15 05 16.90 -10 25 57.9 21.1 V G96 – Mt. Lemmon Survey MPS 369536
2011 02 11.50441 15 05 17.19 -10 25 57.9 20.7 V G96 – Mt. Lemmon Survey MPS 369536
2011 02 11.51010 15 05 17.48 -10 25 57.5 21.1 V G96 – Mt. Lemmon Survey MPS 369536
2011 02 11.51590 15 05 17.73 -10 25 57.4 21.5 V G96 – Mt. Lemmon Survey MPS 369536
2011 04 02.45405 15 19 46.74 -07 12 25.6 20.3 V 691 – Steward Observatory, Kitt Peak-Spacewatch MPS 377179
2011 04 02.47176 15 19 46.42 -07 12 17.3 21.5 V 691 – Steward Observatory, Kitt Peak-Spacewatch MPS 377179
2011 04 02.48951 15 19 46.06 -07 12 11.9 20.3 V 691 – Steward Observatory, Kitt Peak-Spacewatch MPS 377179
2011 04 06.45228 15 18 26.49 -06 46 36.7   691 – Steward Observatory, Kitt Peak-Spacewatch MPS 377179
2011 04 06.47001 15 18 26.04 -06 46 29.2   691 – Steward Observatory, Kitt Peak-Spacewatch MPS 377179
2011 04 06.48773 15 18 25.62 -06 46 22.6   691 – Steward Observatory, Kitt Peak-Spacewatch MPS 377179
2011 04 27.44651 15 06 29.925 -04 26 58.93 19.9 r F51 – Pan-STARRS 1, Haleakala MPS 380054
2011 04 27.44715 15 06 29.907 -04 26 58.76 20.0 r F51 – Pan-STARRS 1, Haleakala MPS 380054
2011 04 27.45629 15 06 29.483 -04 26 55.19 19.9 r F51 – Pan-STARRS 1, Haleakala MPS 380054
2011 04 27.45694 15 06 29.470 -04 26 55.13 20.0 r F51 – Pan-STARRS 1, Haleakala MPS 380054
2011 04 27.46793 15 06 28.973 -04 26 50.89 19.8 i F51 – Pan-STARRS 1, Haleakala MPS 380054
2011 04 27.46863 15 06 28.940 -04 26 50.58 19.8 i F51 – Pan-STARRS 1, Haleakala MPS 380054
2011 04 27.47863 15 06 28.488 -04 26 46.77 19.7 i F51 – Pan-STARRS 1, Haleakala MPS 380054
2011 04 27.47933 15 06 28.457 -04 26 46.47 19.6 i F51 – Pan-STARRS 1, Haleakala MPS 380054
2011 04 28.39880 15 05 48.945 -04 20 57.43 20.2 g F51 – Pan-STARRS 1, Haleakala MPS 381206
2011 04 28.41410 15 05 48.245 -04 20 51.65 20.4 g F51 – Pan-STARRS 1, Haleakala MPS 381206
2011 04 28.43035 15 05 47.524 -04 20 45.42 19.9 r F51 – Pan-STARRS 1, Haleakala MPS 381206
2011 04 28.44493 15 05 46.853 -04 20 40.11 20.0 r F51 – Pan-STARRS 1, Haleakala MPS 381206
2011 05 01.43739 15 03 35.148 -04 02 12.33 20.0 w F51 – Pan-STARRS 1, Haleakala MPS 381206
2011 05 01.45160 15 03 34.483 -04 02 07.14 20.0 w F51 – Pan-STARRS 1, Haleakala MPS 381206
2011 05 01.46570 15 03 33.833 -04 02 02.06 20.1 w F51 – Pan-STARRS 1, Haleakala MPS 381206
2012 07 20.22989 21 34 01.68 -05 05 52.1 20.5 G G45 – Space Surveillance Telescope, Atom Site MPS 1608823
2012 07 20.33629 21 33 57.89 -05 06 17.4 19.8 G G45 – Space Surveillance Telescope, Atom Site MPS 1608823
2012 07 20.37604 21 33 56.44 -05 06 26.9 21.0 G G45 – Space Surveillance Telescope, Atom Site MPS 1608823
2012 07 20.44129 21 33 54.13 -05 06 42.5 20.3 G G45 – Space Surveillance Telescope, Atom Site MPS 1608823
2012 08 25.07220 21 09 02.08 -08 34 30.0 18.9 J W91 – VHS-VISTA, Cerro Paranal MPS 678434
2012 08 25.07676 21 09 01.90 -08 34 31.9 19.1 Y W91 – VHS-VISTA, Cerro Paranal MPS 678434
2012 09 22.15167 20 57 08.20 -11 23 18.6 20.8 V G96 – Mt. Lemmon Survey MPS 434029
2012 09 22.15792 20 57 08.17 -11 23 20.6 21.4 V G96 – Mt. Lemmon Survey MPS 434029
2012 09 22.16421 20 57 08.13 -11 23 22.3 21.0 V G96 – Mt. Lemmon Survey MPS 434029
2012 09 22.17046 20 57 08.06 -11 23 24.2 20.6 V G96 – Mt. Lemmon Survey MPS 434029
2012 10 15.18164 20 59 50.42 -12 44 57.5 21.3 V G96 – Mt. Lemmon Survey MPS 437711
2012 10 15.18712 20 59 50.64 -12 44 58.3 22.2 V G96 – Mt. Lemmon Survey MPS 437711
2012 10 15.19260 20 59 50.67 -12 44 59.1 21.6 V G96 – Mt. Lemmon Survey MPS 437711
2012 10 15.19810 20 59 50.82 -12 44 59.7 20.9 V G96 – Mt. Lemmon Survey MPS 437711
2013 07 14.57905 02 32 00.513 +09 44 42.53 21.7 w F51 – Pan-STARRS 1, Haleakala MPS 472574
2013 07 14.58300 02 32 00.744 +09 44 42.89 22.0 w F51 – Pan-STARRS 1, Haleakala MPS 472574
2013 07 14.59091 02 32 01.216 +09 44 44.11 22.0 w F51 – Pan-STARRS 1, Haleakala MPS 472574
2013 10 13.44079 02 58 11.37 +05 49 47.4 20.0 V G96 – Mt. Lemmon Survey MPS 482128
2013 10 13.44779 02 58 11.13 +05 49 44.9 20.3 V G96 – Mt. Lemmon Survey MPS 482128
2013 10 13.45477 02 58 10.85 +05 49 41.8 20.4 V G96 – Mt. Lemmon Survey MPS 482128
2013 10 13.46176 02 58 10.60 +05 49 40.1 19.7 V G96 – Mt. Lemmon Survey MPS 482128
2013 11 01.30546 02 44 55.31 +03 54 28.0 20.2 V G96 – Mt. Lemmon Survey MPS 486993
2013 11 01.31278 02 44 54.94 +03 54 25.2 20.3 V G96 – Mt. Lemmon Survey MPS 486993
2013 11 01.32004 02 44 54.58 +03 54 23.0 20.3 V G96 – Mt. Lemmon Survey MPS 486993
2013 11 01.32730 02 44 54.24 +03 54 20.3 20.0 V G96 – Mt. Lemmon Survey MPS 486993
2014 12 21.56558 08 26 31.651 +06 59 43.36 20.7 w F51 – Pan-STARRS 1, Haleakala MPS 561115
2014 12 21.57725 08 26 31.320 +06 59 43.62 20.8 w F51 – Pan-STARRS 1, Haleakala MPS 561115
2015 01 18.36166 08 07 34.76 +08 05 44.6 20.4 R H15 – ISON-NM Observatory, Mayhill MPS 566859
2015 01 18.37250 08 07 34.17 +08 05 47.7 20.1 R H15 – ISON-NM Observatory, Mayhill MPS 566859
2015 01 18.38372 08 07 33.68 +08 05 51.3 20.4 R H15 – ISON-NM Observatory, Mayhill MPS 566859
2015 01 20.38810 08 05 53.87 +08 14 30.5 20.3 r G45 – Space Surveillance Telescope, Atom Site MPS 579496
2015 01 20.39231 08 05 53.66 +08 14 31.4 20.4 r G45 – Space Surveillance Telescope, Atom Site MPS 579496
2015 01 20.39747 08 05 53.37 +08 14 33.1 20.2 r G45 – Space Surveillance Telescope, Atom Site MPS 579496
2015 01 20.40165 08 05 53.19 +08 14 34.0 20.4 r G45 – Space Surveillance Telescope, Atom Site MPS 579496
2015 01 24.51818 08 02 27.994 +08 33 38.91 20.2 w F51 – Pan-STARRS 1, Haleakala MPS 569297
2015 01 24.53192 08 02 27.286 +08 33 43.04 20.2 w F51 – Pan-STARRS 1, Haleakala MPS 569297
2015 01 26.49567 08 00 50.313 +08 43 20.86 20.2 w F51 – Pan-STARRS 1, Haleakala MPS 569297
2015 01 26.50943 08 00 49.620 +08 43 24.92 20.1 w F51 – Pan-STARRS 1, Haleakala MPS 569297
2015 01 26.53697 08 00 48.233 +08 43 33.15 20.3 w F51 – Pan-STARRS 1, Haleakala MPS 569297
2015 02 10.59201 07 49 31.77 +10 05 00.7 20.4 R D29 – Purple Mountain Observatory, XuYi Station MPS 579496
